Weather History for La Grange, TX

Change the Weather History Date:

Saturday, August 10, 2013

  Actual Average (KAUS) Record (KAUS)
Temperature  
Mean Temperature 90 °F 84 °F  
Max Temperature 104 °F 97 °F 107 °F (1953)
Min Temperature 77 °F 72 °F 63 °F (1989)
Degree Days  
Heating Degree Days 0 0  
Month to date heating degree days 0  
Since 1 June heating degree days 0  
Since 1 July heating degree days 0  
Cooling Degree Days 25 19  
Month to date cooling degree days 190  
Year to date cooling degree days 1750  
Since 1 June cooling degree days 1243  
Growing Degree Days 40 (Base 50)    
Moisture  
Dew Point 76 °F    
Average Humidity 71    
Maximum Humidity 93    
Minimum Humidity 35    
Precipitation  
Precipitation 0.00 in 0.04 in 0.80 in (1965)
Month to date precipitation 0.47  
Year to date precipitation 21.54  
Snow  
Snow 0.00 in - - ()
Month to date snowfall  
Since 1 June snowfall  
Since 1 July snowfall  
Snow Depth -    
Sea Level Pressure  
Sea Level Pressure 29.98 in    
Wind  
Wind Speed 4 mph (SE)    
Max Wind Speed 18 mph    
Max Gust Speed 24 mph    
Visibility 10 miles    
Events Rain , Thunderstorm    
T = Trace of Precipitation, MM = Missing Value Source: NWS Daily Summary

Daily Weather History Graph

Daily Weather History Graph

Search for Another Location

Airport:

Trip Planner

Search our weather history database for the weather conditions in past years. The results will help you decide how hot, cold, wet, or windy it might be!

Date:

Astronomy

Aug. 10, 2013 Rise Set
Actual Time 6:52 AM CDT 8:13 PM CDT
Civil Twilight 6:27 AM CDT 8:38 PM CDT
Nautical Twilight 5:56 AM CDT 9:08 PM CDT
Astronomical Twilight 5:25 AM CDT 9:40 PM CDT
Moon 10:18 AM CDT (8/10) 10:19 PM CDT (8/10)
Length of Visible Light 14h 11m
Length of Day
13h 20m
Waxing Crescent, 14% of the Moon is Illuminated
Aug 10
Waxing Crescent
Aug 14
First Quarter
Aug 20
Full
Aug 28
Last Quarter
Sep 5
New

Hourly Weather History & Observations

Time (CDT) Temp. Heat Index Dew Point Humidity Pressure Visibility Wind Dir Wind Speed Gust Speed Precip Events Conditions
12:15 AM 86.2 °F 98.3 °F 77.9 °F 76% 29.96 in 10.0 mi South 9.2 mph - N/A   Clear
12:35 AM 85.6 °F 97.7 °F 78.3 °F 78% 29.97 in 10.0 mi South 6.9 mph - N/A   Clear
12:55 AM 85.1 °F 97.1 °F 78.4 °F 80% 29.97 in 10.0 mi South 6.9 mph - N/A   Clear
1:15 AM 84.4 °F 96.3 °F 78.6 °F 83% 29.97 in 10.0 mi South 6.9 mph - N/A   Clear
1:35 AM 83.8 °F 95.5 °F 78.8 °F 85% 29.97 in 10.0 mi South 4.6 mph - N/A   Clear
1:55 AM 83.3 °F 94.2 °F 78.6 °F 86% 29.97 in 10.0 mi South 4.6 mph - N/A   Clear
2:15 AM 82.6 °F 92.3 °F 78.3 °F 87% 29.97 in 10.0 mi Calm Calm - N/A   Clear
2:35 AM 81.9 °F 90.5 °F 77.9 °F 88% 29.97 in 10.0 mi Calm Calm - N/A   Clear
2:55 AM 82.2 °F 91.3 °F 77.9 °F 87% 29.97 in 10.0 mi Calm Calm - N/A   Clear
3:15 AM 81.7 °F 90.0 °F 77.9 °F 88% 29.97 in 10.0 mi Calm Calm - N/A   Clear
3:35 AM 80.6 °F 87.1 °F 77.2 °F 89% 29.96 in 10.0 mi Calm Calm - N/A   Clear
3:55 AM 80.4 °F 86.6 °F 77.0 °F 89% 29.96 in 10.0 mi Calm Calm - N/A   Clear
4:15 AM 80.1 °F 85.8 °F 76.8 °F 90% 29.96 in 10.0 mi Calm Calm - N/A   Clear
4:35 AM 79.7 °F - 76.5 °F 90% 29.96 in 10.0 mi Calm Calm - N/A   Clear
4:55 AM 79.5 °F - 76.5 °F 90% 29.96 in 10.0 mi Calm Calm - N/A   Clear
5:15 AM 78.8 °F - 76.3 °F 92% 29.96 in 10.0 mi Calm Calm - N/A   Scattered Clouds
5:35 AM 78.8 °F - 76.3 °F 92% 29.96 in 10.0 mi Calm Calm - N/A   Clear
5:55 AM 78.8 °F - 76.3 °F 92% 29.96 in 10.0 mi Calm Calm - N/A   Clear
6:15 AM 78.8 °F - 76.1 °F 91% 29.97 in 10.0 mi Calm Calm - N/A   Clear
6:35 AM 78.1 °F - 75.9 °F 93% 29.97 in 10.0 mi Calm Calm - N/A   Clear
6:55 AM 77.5 °F - 75.2 °F 92% 29.97 in 10.0 mi Calm Calm - N/A   Clear
7:15 AM 78.1 °F - 75.9 °F 93% 29.98 in 10.0 mi Calm Calm - N/A   Clear
7:35 AM 78.8 °F - 76.5 °F 92% 29.99 in 10.0 mi Calm Calm - N/A   Clear
7:55 AM 80.4 °F 86.8 °F 77.2 °F 90% 30.00 in 10.0 mi Calm Calm - N/A   Clear
8:15 AM 82.2 °F 91.3 °F 77.9 °F 87% 30.00 in 10.0 mi Calm Calm - N/A   Clear
8:35 AM 84.2 °F 94.9 °F 77.9 °F 81% 30.00 in 10.0 mi Calm Calm - N/A   Clear
8:55 AM 85.3 °F 97.2 °F 78.1 °F 79% 30.01 in 10.0 mi Calm Calm - N/A   Clear
9:15 AM 86.4 °F 98.8 °F 77.9 °F 76% 30.01 in 10.0 mi Calm Calm - N/A   Clear
9:35 AM 87.1 °F 98.8 °F 77.2 °F 72% 30.02 in 10.0 mi Calm Calm - N/A   Clear
9:55 AM 88.7 °F 101.6 °F 77.2 °F 69% 30.02 in 10.0 mi ESE 4.6 mph - N/A   Clear
10:15 AM 88.9 °F 100.9 °F 76.8 °F 67% 30.03 in 10.0 mi East 3.5 mph - N/A   Clear
10:35 AM 89.8 °F 104.0 °F 77.9 °F 68% 30.03 in 10.0 mi North 3.5 mph - N/A   Scattered Clouds
10:55 AM 90.7 °F 103.8 °F 77.0 °F 64% 30.03 in 10.0 mi ESE 3.5 mph - N/A   Scattered Clouds
11:15 AM 92.1 °F 105.0 °F 76.3 °F 60% 30.03 in 10.0 mi NE 3.5 mph - N/A   Clear
11:35 AM 92.8 °F 104.1 °F 75.0 °F 56% 30.03 in 10.0 mi Calm Calm - N/A   Clear
11:55 AM 94.3 °F 106.3 °F 75.4 °F 54% 30.02 in 10.0 mi Calm Calm - N/A   Clear
12:15 PM 95.7 °F 107.7 °F 75.2 °F 51% 30.02 in 10.0 mi East 4.6 mph - N/A   Clear
12:35 PM 95.0 °F 107.4 °F 75.2 °F 53% 30.01 in 10.0 mi South 3.5 mph - N/A   Clear
12:55 PM 98.2 °F 111.7 °F 75.2 °F 48% 30.01 in 10.0 mi Calm Calm - N/A   Clear
1:15 PM 97.2 °F 109.7 °F 75.2 °F 49% 29.99 in 10.0 mi ENE 6.9 mph - N/A   Scattered Clouds
1:35 PM 98.8 °F 111.3 °F 75.0 °F 46% 29.99 in 10.0 mi ENE 5.8 mph - N/A   Scattered Clouds
1:55 PM 99.7 °F 111.8 °F 73.9 °F 44% 29.97 in 10.0 mi East 8.1 mph - N/A   Scattered Clouds
2:15 PM 100.4 °F 112.7 °F 74.1 °F 43% 29.96 in 10.0 mi East 9.2 mph - N/A   Clear
2:35 PM 100.2 °F 112.3 °F 73.8 °F 43% 29.96 in 10.0 mi ENE 9.2 mph - N/A   Scattered Clouds
2:55 PM 101.7 °F 114.0 °F 73.6 °F 41% 29.95 in 10.0 mi East 10.4 mph - N/A   Clear
3:15 PM 102.0 °F 113.0 °F 73.0 °F 39% 29.93 in 10.0 mi East 10.4 mph - N/A   Clear
3:35 PM 103.1 °F 112.0 °F 70.9 °F 35% 29.93 in 10.0 mi ENE 9.2 mph - N/A   Clear
3:55 PM 103.8 °F 118.4 °F 75.0 °F 40% 29.93 in 10.0 mi ESE 13.8 mph 21.9 mph N/A   Clear
4:15 PM 99.0 °F 114.5 °F 76.8 °F 49% 29.93 in 10.0 mi ESE 18.4 mph 24.2 mph N/A Thunderstorm Clear
4:35 PM 98.6 °F 111.7 °F 75.0 °F 47% 29.93 in 10.0 mi SE 15.0 mph 20.7 mph N/A   Clear
4:55 PM 98.8 °F 110.5 °F 73.9 °F 45% 29.93 in 10.0 mi SSE 16.1 mph 24.2 mph N/A   Clear
5:15 PM 97.3 °F 110.2 °F 75.6 °F 49% 29.93 in 10.0 mi SSE 13.8 mph 20.7 mph N/A   Clear
5:35 PM 96.8 °F 111.3 °F 76.6 °F 52% 29.93 in 10.0 mi SE 11.5 mph 20.7 mph N/A   Clear
5:55 PM 95.4 °F 109.1 °F 76.3 °F 54% 29.94 in 10.0 mi SSE 12.7 mph 20.7 mph N/A   Clear
6:15 PM 95.2 °F 109.4 °F 76.6 °F 55% 29.95 in 10.0 mi SSE 9.2 mph 16.1 mph N/A Thunderstorm Clear
6:35 PM 95.5 °F 106.5 °F 74.3 °F 50% 29.96 in 10.0 mi SE 8.1 mph - N/A   Scattered Clouds
6:55 PM 93.0 °F 106.7 °F 76.6 °F 59% 29.97 in 10.0 mi NNE 4.6 mph - N/A Thunderstorm Thunderstorm
7:15 PM 90.7 °F 102.6 °F 76.1 °F 62% 29.98 in 10.0 mi WNW 3.5 mph - N/A Thunderstorm Thunderstorm
7:35 PM 88.2 °F 100.7 °F 77.4 °F 70% 29.96 in 10.0 mi South 3.5 mph - N/A Rain Light Rain
7:55 PM 86.2 °F 98.3 °F 77.9 °F 76% 29.97 in 10.0 mi SSE 8.1 mph - N/A Rain , Thunderstorm Light Thunderstorms and Rain
8:15 PM 83.5 °F 91.9 °F 76.1 °F 78% 29.97 in 10.0 mi South 15.0 mph 19.6 mph N/A Rain , Thunderstorm Light Thunderstorms and Rain
8:35 PM 80.4 °F 86.0 °F 75.6 °F 85% 29.98 in 10.0 mi SSW 8.1 mph - N/A Thunderstorm Clear
8:55 PM 80.1 °F 84.6 °F 74.3 °F 82% 29.97 in 10.0 mi SSW 5.8 mph - N/A   Clear
9:15 PM 80.6 °F 85.7 °F 74.3 °F 81% 29.97 in 10.0 mi South 3.5 mph - N/A   Clear
9:35 PM 81.5 °F 87.4 °F 74.3 °F 79% 29.98 in 10.0 mi SSE 4.6 mph - N/A   Clear
9:55 PM 82.0 °F 88.4 °F 74.5 °F 78% 29.99 in 10.0 mi Calm Calm - N/A   Clear
10:15 PM 81.9 °F 88.5 °F 75.2 °F 80% 30.00 in 10.0 mi Calm Calm - N/A   Clear
10:35 PM 81.7 °F 88.3 °F 75.4 °F 81% 30.01 in 10.0 mi NE 3.5 mph - N/A   Clear
10:55 PM 81.7 °F 88.5 °F 75.6 °F 82% 30.02 in 10.0 mi Calm Calm - N/A   Clear
11:15 PM 81.9 °F 88.9 °F 75.7 °F 82% 30.02 in 10.0 mi Calm Calm - N/A   Clear
11:35 PM 81.5 °F 88.0 °F 75.6 °F 82% 30.01 in 10.0 mi NNW 3.5 mph - N/A   Clear
11:55 PM 81.7 °F 88.3 °F 75.2 °F 81% 30.01 in 10.0 mi Calm Calm - N/A   Clear